Flag for Norway Weather past 2 weeks in Ålesund, Norway

Now
55 °F

Partly sunny.


Feels Like: 53 °F
Forecast: 53 / 57 °F
Wind: 10 mph from Southeast

Location: Alesund / Vigra

Current Time: Sep 19, 2014 at 10:25:48 AM

Latest Report: Sep 19, 2014 at 9:50 AM


Visibility: N/A

Pressure: 30.07 "Hg

Humidity: 82%

Dew point: 50 °F

Location of ÅlesundLocation

Historic Weather in Ålesund — Graph

°F

Ålesund temperature yesterday

Maximum temperature yesterday: 59 °F (at 2:20 PM)
Minimum temperature yesterday: 46 °F (at 8:50 PM)
Average temperature yesterday: 53 °F

Past Weeks' High & Low Weather Summary

 TemperatureHumidityPressure
High70 °F (Sep 7, 12:50 PM)100% (Sep 6, 10:20 PM)30.48 "Hg (Sep 6, 10:20 PM)
Low45 °F (Sep 16, 4:50 AM)60% (Sep 7, 12:50 PM)29.80 "Hg (Sep 8, 8:50 AM)
Average57 °F86%30.16 "Hg
* Reported Sep 4 9:20 AM — Sep 19 9:20 AM, Ålesund, Weather by CustomWeather, © 2014

Note: Actual official high and low records may vary slightly from our data, if they occured in-between our weather recording intervals... More about our weather records

Advertising

Ålesund weather history for previous 24 hours

 ConditionsComfort  
Time TempWeatherWind HumidityBarometerVisibility
9:20 AM
Sep 19
55 °FScattered clouds.10 mph88%30.07 "HgN/A
8:50 AM54 °FScattered clouds.9 mph88%30.07 "HgN/A
8:20 AM54 °FPartly sunny.8 mph88%30.07 "HgN/A
7:50 AM54 °FPassing clouds.9 mph88%30.07 "HgN/A
7:20 AM54 °FPassing clouds.9 mph88%30.07 "HgN/A
6:50 AM54 °FPassing clouds.9 mph88%30.07 "HgN/A
6:20 AM54 °FPassing clouds.9 mph88%30.07 "HgN/A
5:50 AM52 °FPassing clouds.9 mph94%30.07 "HgN/A
5:20 AM52 °FPassing clouds.9 mph94%30.07 "HgN/A
4:50 AM50 °FPassing clouds.9 mph100%30.07 "HgN/A
4:20 AM50 °FCool.12 mph94%30.07 "HgN/A
3:50 AM52 °FCool.9 mph94%30.09 "HgN/A
3:20 AM50 °FCool.9 mph100%30.09 "HgN/A
2:50 AM52 °FCool.9 mph94%30.09 "HgN/A
2:20 AM52 °FCool.9 mph100%30.09 "HgN/A
1:50 AM52 °FCool.9 mph100%30.09 "HgN/A
1:20 AM48 °FCool.8 mph100%30.09 "HgN/A
12:50 AM50 °FCool.8 mph94%30.09 "HgN/A
12:20 AM48 °FCool.8 mph100%30.09 "HgN/A
11:50 PM
Sep 18
48 °FCool.7 mph100%30.09 "HgN/A
11:20 PM48 °FPassing clouds.6 mph94%30.12 "HgN/A
10:50 PM48 °FPassing clouds.6 mph100%30.12 "HgN/A
10:20 PM48 °FPassing clouds.3 mph94%30.12 "HgN/A
9:50 PM46 °FPassing clouds.2 mph93%30.12 "HgN/A
9:20 PM46 °FClear.No wind93%30.12 "HgN/A
8:50 PM46 °FClear.1 mph93%30.12 "Hg10 mi
8:20 PM48 °FSunny.1 mph94%30.12 "Hg10 mi
7:50 PM52 °FSunny.No wind88%30.12 "Hg10 mi
7:20 PM55 °FSunny.2 mph82%30.12 "Hg10 mi
6:50 PM55 °FSunny.2 mph82%30.12 "Hg10 mi
6:20 PM55 °FPassing clouds.3 mph82%30.12 "HgN/A
5:50 PM57 °FPassing clouds.3 mph82%30.12 "HgN/A
4:50 PM57 °FPassing clouds.3 mph77%30.12 "HgN/A
4:20 PM55 °FPartly sunny.3 mph82%30.12 "HgN/A
3:50 PM57 °FPartly sunny.6 mph77%30.12 "HgN/A
3:20 PM57 °FScattered clouds.8 mph77%30.12 "HgN/A
2:50 PM59 °FPassing clouds.5 mph72%30.12 "HgN/A
2:20 PM59 °FPassing clouds.5 mph77%30.12 "HgN/A
1:50 PM57 °FScattered clouds.6 mph82%30.12 "HgN/A
1:20 PM57 °FScattered clouds.6 mph77%30.12 "HgN/A
12:50 PM57 °FPartly sunny.5 mph82%30.15 "HgN/A
12:20 PM55 °FPartly sunny.2 mph82%30.15 "HgN/A
11:50 AM55 °FPartly sunny.3 mph88%30.15 "HgN/A
11:20 AM55 °FPartly sunny.3 mph88%30.15 "HgN/A
10:50 AM54 °FPartly sunny.3 mph94%30.15 "HgN/A
10:20 AM54 °FSnow. Partly sunny.5 mph88%30.15 "HgN/A
Weather by CustomWeather, © 2014

See weather overviewHow to use our weather pages